CZ-6A/2022-151JN Inactive TLE
Two-Line Element set (TLE) *
1 54510U 22151JN 22345.47996642 .00002215 00000+0 80972-3 0 9997 2 54510 98.7685 350.7180 0072650 143.5529 217.0632 14.32495999 3967
TLE History
CZ-6A | 2022-12-11T11:31:09+00:00 (22345.47996642) | 828 | 26702 | 2 years ago |
CZ-6A | 2022-12-11T04:48:49+00:00 (22345.20057273) | 828 | 26701 | 2 years ago |
CZ-6A | 2022-12-10T15:24:10+00:00 (22344.64178416) | 829 | 26698 | 2 years ago |
CZ-6A | 2022-12-10T12:03:00+00:00 (22344.50208683) | 829 | 26697 | 2 years ago |
CZ-6A | 2022-12-10T00:18:56+00:00 (22344.01314565) | 830 | 26694 | 2 years ago |
CZ-6A | 2022-12-09T05:52:31+00:00 (22343.24480769) | 831 | 26690 | 2 years ago |
CZ-6A | 2022-12-08T18:08:27+00:00 (22342.75586479) | 832 | 26688 | 2 years ago |
CZ-6A | 2022-12-08T11:26:07+00:00 (22342.47646815) | 832 | 26687 | 2 years ago |
CZ-6A | 2022-12-07T18:40:17+00:00 (22341.77797457) | 833 | 26684 | 2 years ago |
CZ-6A | 2022-12-07T06:56:12+00:00 (22341.2890293) | 834 | 26682 | 2 years ago |
Showing 1 to 10 of 17 entries
* TLE Data courtesy CelesTrak. Satellite info data courtesy of UCS.
All data calculated from last known TLE - orbit.ing-now.com offers no guarantee whatsoever regarding the accuracy of this data. Orbital decay and reentry predictions are approximations +/- 8 hours when unassisted.